SL-14 DEB, 47080

Orbit data source: Space-Track

SL-14 DEB, 47080 is space debris in LEO originally from a launch on Thu, 15 Aug 1991 UTC launched from the Plesetsk Missile And Space Complex (PKMTR). Debris objects in space refer to the collection of defunct objects orbiting the Earth. Examples of debris include non-operational satellites, rocket bodies, and fragments generated from explosions, collisions, or faulty payload assembly.

Loading next visibility...
Identifier
47080, 1991-056DE
Orbit
LEO
Country
Flag of CISCIS
Related business
Manufacturer
Unknown
Mission
Spacecraft
Bus & Motor
Unknown
Mass
Unknown
Launch date (UTC)
1991-08-15 (35 years ago)
Launch vehicle
Unknown
Launch site
Plesetsk Missile And Space Complex (PKMTR)
Object type
Payload
Rocket body
Debris
Shape & HBR
Unknown shape, 0.1 m
Radar Cross Section
Small (<0.1 m²)

Expand to show TLE details & history
Last TLE update: 16 hours ago

TLE from 16 hours ago
0 SL-14 DEB
1 47080U 91056DE  26257.26653541  .00011089  00000-0  54356-2 0  9998
2 47080  82.5114 245.3643 0123210 251.2576 107.5198 14.13834873294587
Epoch: 2026-09-14T06:23Z
TLE epoch observation values (Epoch: 2026-09-14T06:23:48.659Z)
Latitude
-0.00006°
Longitude
156.16225°
Altitude
877.014 km
Speed
7.4 km/s
True Right ascension
16h 21m 27s
True Declination
0° 00' 00"
Sunlit
Object was in daylight at epoch
Visualization orbit readout
Latitude
Unknown
Longitude
Unknown
Altitude
Unknown
Speed
Unknown
Apparent Right ascension
Unknown
Apparent Declination
Unknown
Sunlit
N/A
Visualization observer readout
Local Sidereal Time
15:17:10
Azimuth
Unknown
Elevation
Unknown
Doppler factor
Unknown
Orbital elements
Apogee altitude
932.367 km
Perigee altitude
754.414 km
Semi-major axis
7,221.527 km
Eccentricity
0.01232
Inclination
82.5114°
RAAN
245.3643°
Arg. of periapsis
251.2576°
True anomaly
108.85985°
Mean anomaly
107.5198°
Eccentric anomaly
108.19046°
Mean motion
3.53671 °/min
Orbital period
101.79 mins
BSTAR
0.0054356
Loading maneuver chart data...
Computing Atmospheric mass density...
Loading historical data...
Loading historical data...
Loading historical data...
Loading historical data...
Loading historical data...
Loading historical data...
Loading historical data...

Documentation

Showing up to 5 results
|